Date,TemperatureHighF,TemperatureAvgF,TemperatureLowF,DewpointHighF,DewpointAvgF,DewpointLowF,HumidityHigh,HumidityAvg,HumidityLow,PressureMaxIn,PressureMinIn,WindSpeedMaxMPH,WindSpeedAvgMPH,GustSpeedMaxMPH,PrecipitationSumIn
2013-1-1,67.7,56.5,47.2,60.5,51.5,44.5,98,84,70,29.73,29.48,16,2,16,0.03
2013-1-2,63.6,55.1,47.1,57.2,47.3,37.3,98,77,39,29.71,29.48,16,5,16,0.01
2013-1-3,47.1,43.8,38.2,42.0,39.0,32.0,93,83,72,29.86,29.68,11,3,11,0.01
2013-1-4,55.4,42.9,32.7,38.4,30.3,23.6,89,64,32,29.95,29.84,12,4,12,0.01
2013-1-5,52.9,44.5,33.3,38.7,27.9,24.6,76,53,35,29.97,29.83,9,2,9,0.00
2013-1-6,54.4,48.5,43.6,45.2,40.5,35.9,86,74,59,29.83,29.70,13,4,13,0.01
2013-1-7,55.5,45.8,37.7,38.0,35.4,33.5,88,69,46,29.94,29.80,15,4,15,0.00
2013-1-8,59.4,50.7,43.2,49.1,42.1,34.8,77,72,68,29.94,29.84,14,4,14,0.00
2013-1-9,66.7,57.9,48.6,59.6,52.4,44.6,91,82,76,29.98,29.88,10,3,10,0.01
2013-1-10,69.0,62.7,58.1,64.1,60.5,56.7,97,93,83,29.97,29.82,17,5,17,0.00
2013-1-11,72.6,67.0,62.5,65.2,63.3,61.2,98,88,74,29.83,29.70,19,5,19,0.00
2013-1-12,76.8,67.1,59.8,63.5,59.8,58.6,96,79,56,29.75,29.64,18,3,18,0.00
2013-1-13,75.5,67.2,60.0,64.8,61.5,57.7,96,83,66,29.69,29.61,22,4,22,0.00
2013-1-14,75.8,69.5,64.4,65.7,63.4,59.6,96,82,64,29.71,29.62,21,6,21,0.00
2013-1-15,74.2,66.5,57.9,64.3,61.1,56.8,97,83,69,29.68,29.56,20,5,20,0.00
2013-1-16,72.8,67.0,64.2,67.2,64.1,60.5,98,90,77,29.58,29.49,19,5,19,0.00
2013-1-17,64.9,64.2,63.8,64.2,63.4,62.9,98,97,97,29.51,29.46,11,4,11,0.00
2013-1-18,55.5,48.5,42.0,35.2,31.5,27.3,72,53,35,30.03,29.99,13,2,13,0.00
2013-1-19,60.2,48.1,37.2,42.8,34.7,27.6,82,60,44,30.02,29.80,11,2,11,0.00
2013-1-20,65.0,51.9,38.9,42.2,38.9,34.9,93,65,33,29.80,29.66,12,2,12,0.00
2013-1-21,63.3,50.0,37.4,41.3,36.9,26.5,93,64,38,29.73,29.61,18,4,18,0.00
2013-1-22,50.6,42.7,34.5,26.5,21.8,17.1,61,44,32,29.88,29.72,21,5,21,0.00
2013-1-23,56.3,42.7,32.4,37.8,26.2,19.4,68,53,39,29.97,29.79,18,4,18,0.00
2013-1-24,64.8,55.7,43.4,47.6,35.9,16.1,83,50,28,29.91,29.72,23,7,23,0.00
2013-1-25,50.2,43.0,34.8,40.7,27.9,17.1,77,55,37,29.96,29.70,18,4,18,0.00
2013-1-26,58.6,50.2,44.7,43.0,38.1,31.5,86,65,42,29.84,29.69,11,3,11,0.00
2013-1-27,58.6,49.3,43.0,39.5,35.2,29.8,83,59,44,30.01,29.83,17,6,17,0.00
2013-1-28,64.1,53.2,46.6,53.5,44.0,33.0,87,71,57,29.99,29.82,13,3,13,0.00
2013-1-29,75.4,63.2,49.6,64.2,56.5,47.4,98,80,62,29.83,29.58,17,3,17,0.00
2013-1-30,73.0,65.2,50.7,66.9,60.5,45.9,93,85,75,29.58,29.09,38,10,38,0.00
2013-1-31,53.5,45.3,37.5,46.2,28.5,22.5,84,54,30,29.77,29.39,21,9,34,0.00
2013-2-1,48.5,43.0,34.1,32.1,20.4,9.3,66,43,21,29.93,29.73,22,6,22,0.00
2013-2-2,57.6,42.8,27.5,39.7,21.8,13.5,82,46,23,29.93,29.68,20,3,20,0.03
2013-2-3,61.8,50.8,38.6,41.7,33.9,27.8,88,56,29,29.72,29.55,37,7,37,0.01
2013-2-4,53.7,46.1,39.1,35.2,30.5,28.3,73,55,38,29.71,29.58,9,2,9,0.00
2013-2-5,68.5,53.8,39.4,51.0,43.2,33.5,86,69,45,29.63,29.53,18,3,18,0.00
2013-2-6,70.8,59.2,50.4,51.4,42.8,31.7,95,61,24,29.74,29.60,10,2,10,0.00
2013-2-7,55.1,50.3,46.8,50.3,45.0,34.6,97,84,46,29.69,29.40,23,4,23,0.00
2013-2-8,48.2,46.8,46.1,46.0,45.4,44.6,96,95,92,29.59,29.49,10,3,10,0.00
2013-7-22,85.4,78.4,74.0,75.9,73.6,72.1,95,86,68,29.53,29.51,22,6,22,0.53
2013-7-23,87.5,77.3,71.5,74.9,71.7,69.0,96,84,55,29.57,29.41,24,5,28,0.04
2013-7-24,87.9,77.9,70.3,76.6,72.7,68.9,96,85,64,29.46,29.36,14,4,14,0.00
2013-7-25,91.5,81.8,73.7,75.3,72.9,67.1,95,76,49,29.55,29.38,10,2,10,0.00
2013-7-26,89.5,80.7,74.6,74.8,72.8,70.3,93,78,58,29.62,29.53,13,3,13,0.00
2013-7-27,86.6,79.1,73.3,75.2,72.3,68.7,96,81,57,29.57,29.48,14,3,14,0.00
2013-7-28,90.2,80.8,72.0,73.3,71.2,66.9,97,75,50,29.60,29.50,13,2,18,0.00
2013-7-29,91.0,81.9,73.1,74.6,72.0,69.5,94,73,53,29.71,29.58,14,2,14,0.00
2013-7-30,92.3,81.3,69.4,70.5,65.2,57.1,91,62,33,29.76,29.66,10,2,10,0.00
2013-7-31,78.2,74.4,71.4,73.5,71.6,68.6,97,91,74,29.72,29.57,7,2,10,0.56
2013-8-1,89.3,79.3,72.0,76.5,73.1,71.0,98,83,57,29.59,29.46,12,3,12,0.32
2013-8-2,92.7,82.3,73.6,75.8,72.2,64.6,98,74,42,29.59,29.48,10,2,10,0.00
2013-8-3,90.1,82.8,74.9,76.2,72.9,68.0,96,74,51,29.62,29.55,15,2,15,0.00
2013-8-4,89.8,82.7,77.2,76.7,74.3,72.3,91,76,59,29.59,29.50,13,4,13,0.00
2013-8-5,90.8,81.5,72.7,76.5,72.9,69.0,90,76,53,29.59,29.52,12,3,12,0.00
2013-8-6,92.2,81.5,76.3,76.8,74.4,68.0,94,80,48,29.60,29.51,14,3,14,0.00
2013-8-7,89.4,78.8,74.9,76.7,74.8,71.6,97,88,62,29.62,29.54,15,3,16,2.49
2013-8-8,90.0,81.4,73.3,76.3,73.2,70.2,95,78,56,29.63,29.55,14,3,14,0.00
2013-8-9,92.5,82.8,73.9,76.3,74.1,71.9,94,77,54,29.68,29.57,11,3,11,0.00
2013-8-10,93.0,83.3,74.7,77.8,74.5,68.1,95,76,46,29.70,29.62,15,2,15,0.05
2013-8-11,91.2,83.6,74.6,75.5,73.7,71.2,95,74,54,29.73,29.63,14,3,14,0.00
2013-8-12,93.3,84.7,76.9,76.2,73.7,68.5,90,71,46,29.68,29.56,18,3,18,0.00
2013-8-13,91.1,81.3,74.2,75.8,73.3,71.2,94,78,54,29.60,29.45,15,4,15,0.00
2013-8-14,85.7,77.5,72.4,75.6,73.3,70.6,96,87,65,29.57,29.46,11,3,11,0.11
2013-8-15,72.4,68.4,64.8,70.8,67.1,63.1,98,96,92,29.64,29.53,20,5,20,2.83
2013-8-16,69.3,66.6,64.4,66.8,65.2,63.2,98,95,90,29.66,29.57,15,4,15,0.74
2013-8-17,71.0,67.0,63.8,70.6,66.4,63.2,99,98,97,29.70,29.62,14,3,14,1.64
2013-8-18,84.7,74.3,69.8,77.2,72.3,69.6,100,94,76,29.74,29.63,22,2,22,1.13
2013-8-19,87.0,76.5,71.1,77.0,73.6,70.8,99,91,68,29.70,29.59,21,3,21,0.56
2013-8-20,84.5,76.9,71.1,77.5,73.9,69.0,98,91,73,29.75,29.63,16,4,16,0.15
2013-8-21,90.0,77.9,70.3,75.7,72.3,69.8,99,85,58,29.78,29.67,10,3,15,0.05
2013-8-22,92.2,80.0,71.9,74.7,72.1,69.5,97,79,49,29.75,29.59,17,2,17,0.00
2013-8-23,91.2,78.1,70.9,74.7,71.7,68.3,97,83,53,29.65,29.53,36,3,36,2.44
2013-8-24,80.8,74.8,69.5,72.8,70.2,68.2,97,86,76,29.79,29.58,17,4,17,0.00
2013-8-25,83.3,75.8,68.4,69.3,64.4,57.8,93,70,44,29.89,29.78,22,5,22,0.00
2013-8-26,82.5,73.7,63.0,65.4,60.4,54.8,89,65,42,29.85,29.71,22,3,22,0.00
2013-8-27,87.0,76.1,64.9,69.0,64.7,60.1,94,70,42,29.73,29.60,11,2,11,0.00
2013-8-28,90.0,78.8,68.0,72.8,69.3,66.0,96,75,47,29.63,29.54,13,2,13,0.00
2013-8-29,92.6,82.8,73.0,77.2,73.4,70.5,93,75,53,29.58,29.47,15,4,15,0.00
2013-8-30,88.3,81.3,75.8,78.3,75.7,73.7,94,84,70,29.57,29.48,18,4,18,0.00
2013-8-31,89.3,80.6,73.4,76.9,74.7,72.8,98,84,60,29.56,29.44,10,2,12,0.00
2013-9-1,91.2,80.6,73.6,76.3,73.6,69.1,97,81,57,29.51,29.42,18,3,18,0.00
2013-9-2,88.5,79.8,72.0,76.1,72.4,68.6,96,79,54,29.53,29.44,13,3,13,0.00
2013-9-3,90.3,80.0,73.8,75.9,73.2,68.6,95,81,56,29.56,29.44,31,3,31,0.14
2013-9-4,89.9,80.7,72.4,76.1,73.3,71.2,97,80,59,29.65,29.53,12,2,12,0.00
2013-9-5,91.5,82.3,73.9,75.5,73.0,67.5,97,75,47,29.68,29.59,10,2,10,0.00
2013-9-6,89.3,80.7,72.2,73.5,70.8,67.2,95,74,50,29.69,29.59,15,3,15,0.00
2013-9-7,89.3,79.0,69.3,70.1,67.2,63.4,89,69,44,29.67,29.56,11,2,11,0.00
2013-9-8,90.8,79.9,68.5,72.3,68.9,66.6,94,71,48,29.59,29.49,11,2,11,0.00
2013-9-9,90.8,81.8,73.2,72.8,70.3,66.4,90,70,47,29.67,29.54,16,4,16,0.00
2013-9-10,87.8,80.3,73.5,72.2,69.7,66.1,91,72,50,29.78,29.67,18,4,18,0.00
2013-9-11,88.8,79.3,69.4,71.7,67.5,60.8,94,70,40,29.79,29.65,15,3,15,0.00
2013-9-12,90.3,79.8,68.4,71.3,68.1,63.1,95,70,44,29.67,29.47,10,2,10,0.00
2013-9-13,89.3,81.1,74.1,72.0,68.2,61.9,87,66,43,29.50,29.35,14,4,14,0.00
2013-9-14,84.9,73.8,62.6,64.0,60.1,55.1,86,64,43,29.61,29.43,19,4,19,0.00
2013-9-15,89.2,77.4,68.5,73.7,68.9,63.0,88,76,53,29.71,29.61,14,4,14,0.00
2013-9-16,91.0,81.0,72.3,75.3,71.8,68.0,96,75,50,29.69,29.59,12,2,12,0.00
2013-9-17,80.5,75.2,70.7,72.1,68.6,63.8,97,80,67,29.76,29.63,21,5,21,0.00
2013-9-18,78.5,72.8,67.4,65.3,63.1,60.1,80,72,59,29.79,29.69,17,6,18,0.00
2013-9-19,84.7,73.7,63.0,65.0,61.4,59.1,88,67,45,29.75,29.64,15,3,15,0.00
2013-9-20,86.7,76.1,64.8,70.3,66.3,62.4,92,73,49,29.65,29.49,13,2,13,0.00
2013-9-21,81.8,72.9,68.1,73.3,69.6,66.9,98,90,69,29.51,29.30,21,4,21,1.06
2013-9-22,81.6,72.0,64.7,67.7,64.6,60.0,97,80,50,29.44,29.31,19,3,19,0.00
2013-9-23,78.7,71.5,63.6,67.2,63.5,57.8,94,77,57,29.58,29.43,17,4,17,0.00
2013-9-24,73.9,69.3,65.9,67.0,65.4,62.9,96,88,72,29.59,29.44,19,4,19,0.14
2013-9-25,71.0,68.7,65.4,68.9,66.8,64.0,97,94,89,29.45,29.36,15,4,15,0.16
2013-9-26,76.6,68.6,63.9,65.0,63.8,62.7,97,86,63,29.56,29.42,13,3,13,0.00
2013-9-27,79.3,69.2,59.5,63.0,58.5,53.1,94,71,41,29.68,29.56,18,3,18,0.00
2013-9-28,77.2,67.6,59.3,57.8,55.7,52.1,85,67,44,29.77,29.66,22,4,22,0.00
2013-9-29,77.3,67.1,57.5,59.4,56.7,54.4,90,71,47,29.69,29.57,13,2,14,0.00
2013-9-30,75.2,67.0,60.3,62.7,59.8,57.0,89,78,61,29.65,29.57,8,2,10,0.00
2013-10-1,82.8,69.8,58.1,62.7,59.5,56.8,97,73,43,29.73,29.61,11,1,11,0.00
2013-10-2,83.5,71.9,60.3,64.7,61.3,58.0,95,72,44,29.73,29.63,12,1,12,0.00
2013-10-3,84.5,73.5,62.4,64.7,62.1,55.5,95,70,45,29.72,29.62,16,1,16,0.00
2013-10-4,86.0,74.4,63.6,68.8,64.2,61.5,93,73,47,29.73,29.64,14,1,14,0.00
2013-10-5,87.0,75.3,64.5,68.8,65.7,62.5,94,74,47,29.70,29.58,14,2,14,0.00
2013-10-6,85.0,74.5,65.2,72.1,68.2,63.2,97,82,60,29.60,29.43,14,3,15,0.20
2013-10-7,75.8,71.8,64.7,72.1,68.2,58.3,99,89,71,29.49,29.38,12,2,12,0.02
2013-10-8,71.5,65.8,59.6,60.6,58.0,55.9,90,76,66,29.71,29.47,22,5,22,0.00
2013-10-9,77.5,65.9,58.1,57.6,55.3,52.7,91,70,47,29.74,29.65,19,4,19,0.00
2013-10-10,80.7,68.0,56.0,60.8,56.5,52.5,89,68,46,29.70,29.56,14,2,14,0.00
2013-10-11,82.2,69.6,56.8,60.3,57.3,54.5,96,69,39,29.62,29.51,13,3,16,0.00
2013-10-12,83.8,70.1,56.2,60.6,57.3,54.2,95,67,37,29.64,29.54,12,2,12,0.00
2013-10-13,82.7,71.5,60.6,64.8,61.6,58.3,92,73,49,29.73,29.62,12,3,16,0.00
2013-10-14,71.3,67.2,62.2,64.2,62.6,60.7,95,86,76,29.76,29.67,15,3,15,0.00
2013-10-15,70.8,67.0,63.0,62.7,61.4,60.0,90,83,70,29.70,29.60,14,3,14,0.00
2013-10-16,81.3,69.3,59.7,62.7,59.8,56.8,95,74,47,29.63,29.51,10,1,10,0.00
2013-10-17,82.1,71.0,61.8,68.7,64.3,60.0,94,81,57,29.55,29.45,15,3,15,0.00
2013-10-18,77.3,69.5,63.0,68.4,62.1,57.5,91,78,62,29.59,29.48,14,4,14,0.00
2013-10-19,69.9,65.3,61.7,58.8,56.5,53.9,84,73,58,29.55,29.48,12,2,12,0.00
2013-10-20,75.3,63.3,53.0,56.2,53.0,49.3,94,72,44,29.62,29.53,11,2,11,0.00
2013-10-21,72.2,63.5,55.1,62.5,57.1,49.9,90,80,69,29.68,29.57,9,2,9,0.00
2013-10-22,73.3,65.8,62.2,64.4,61.3,58.9,94,86,69,29.60,29.42,8,1,8,0.00
2013-10-23,69.2,60.3,50.9,60.6,44.8,30.6,93,62,25,29.66,29.42,28,6,28,0.00
2013-10-24,69.9,55.5,42.8,43.4,38.8,32.1,84,57,30,29.79,29.65,12,2,12,0.00
2013-10-25,60.2,52.3,45.7,43.9,35.8,26.6,79,56,28,29.91,29.74,18,4,18,0.00
2013-10-26,45.9,42.2,39.2,35.1,34.4,33.6,81,74,63,29.89,29.84,9,3,9,0.00